DLH145 EDDG-LEPA

Flight info

Callsign DLH145
Flight time N/A
Altitude 30000
Route DOMEG1E/07 DOMEG N853 QATJA Y841 NVO/N0450F380 Y841 KENUM DCT ARCKY DCT GESLO/N0443F370 DCT LIMGO DCT SUTAL DCT GTQ DCT POGOL DCT LASAT DCT MOROK DCT GILIR DCT GEVEA DCT INCUS DCT BALSI DCT RETNO DCT TUPOX DCT MTG DCT DIVKO DCT VATIR DCT PIVUS DCT BODEQ DCT VERSO L129 LUNIK LUNIK3P
Aircraft A320/M-V/N

Departure

Time 2026-04-27 20:15
Airport Münster Osnabrück Airport (EDDG)

Arrival

Time N/A
Airport Palma de Mallorca Airport (LEPA)
Time Latitude Longitude Altitude Speed Heading
2026-04-27 19:52 52.13162 7.69313 168 ft 0 kts 189°
2026-04-27 20:04 52.13169 7.69315 167 ft 4 kts 187°
2026-04-27 20:05 52.13193 7.69322 167 ft 2 kts 200°
2026-04-27 20:05 52.13215 7.69336 167 ft 4 kts 211°
2026-04-27 20:05 52.13235 7.69364 167 ft 4 kts 240°
2026-04-27 20:05 52.13240 7.69385 167 ft 1 kts 251°
2026-04-27 20:06 52.13241 7.69387 167 ft 0 kts 251°
2026-04-27 20:10 52.13241 7.69386 167 ft 1 kts 251°
2026-04-27 20:10 52.13267 7.69315 167 ft 16 kts 329°
2026-04-27 20:10 52.13353 7.69202 167 ft 18 kts 264°
2026-04-27 20:10 52.13310 7.69000 167 ft 20 kts 252°
2026-04-27 20:11 52.13279 7.68780 167 ft 17 kts 258°
2026-04-27 20:11 52.13261 7.68773 167 ft 2 kts 107°
2026-04-27 20:11 52.13302 7.68857 167 ft 14 kts 28°
2026-04-27 20:11 52.13349 7.68769 167 ft 16 kts 245°
2026-04-27 20:12 52.13304 7.68552 167 ft 24 kts 252°
2026-04-27 20:12 52.13244 7.68268 166 ft 27 kts 250°
2026-04-27 20:12 52.13183 7.67979 166 ft 24 kts 251°
2026-04-27 20:12 52.13137 7.67763 166 ft 17 kts 251°
2026-04-27 20:13 52.13129 7.67726 166 ft 0 kts 251°
2026-04-27 20:13 52.13128 7.67719 166 ft 0 kts 251°
2026-04-27 20:13 52.13105 7.67615 165 ft 23 kts 251°
2026-04-27 20:14 52.13042 7.67314 165 ft 27 kts 251°
2026-04-27 20:14 52.13068 7.67080 165 ft 18 kts 324°
2026-04-27 20:14 52.13172 7.67092 164 ft 16 kts 51°
2026-04-27 20:14 52.13214 7.67276 164 ft 26 kts 72°
2026-04-27 20:15 52.13356 7.67964 166 ft 98 kts 71°
2026-04-27 20:15 52.13639 7.69311 228 ft 146 kts 69°
2026-04-27 20:15 52.13969 7.70911 812 ft 152 kts 70°
2026-04-27 20:15 52.14304 7.72580 1512 ft 158 kts 72°
2026-04-27 20:16 52.14662 7.74303 2228 ft 161 kts 72°
2026-04-27 20:16 52.15032 7.76010 2838 ft 162 kts 71°
2026-04-27 20:16 52.15442 7.77837 3108 ft 183 kts 71°
2026-04-27 20:16 52.15903 7.79896 3307 ft 205 kts 71°
2026-04-27 20:17 52.15993 7.82278 3557 ft 225 kts 108°
2026-04-27 20:17 52.15025 7.84320 4056 ft 238 kts 146°
2026-04-27 20:17 52.13554 7.85593 4794 ft 241 kts 153°
2026-04-27 20:17 52.12527 7.86328 5108 ft 246 kts 159°
2026-04-27 20:18 52.10263 7.86444 5244 ft 249 kts 195°
2026-04-27 20:18 52.08670 7.85341 5248 ft 249 kts 204°
2026-04-27 20:18 52.07090 7.84170 5247 ft 249 kts 202°
2026-04-27 20:18 52.05494 7.83023 5474 ft 252 kts 202°
2026-04-27 20:19 52.03866 7.81855 5886 ft 264 kts 202°
2026-04-27 20:19 52.02154 7.80628 6231 ft 272 kts 202°
2026-04-27 20:19 52.00416 7.79382 6572 ft 274 kts 202°
2026-04-27 20:19 51.98663 7.78133 6890 ft 276 kts 202°
2026-04-27 20:20 51.96898 7.76897 7204 ft 277 kts 202°
2026-04-27 20:20 51.95128 7.75662 7533 ft 278 kts 203°
2026-04-27 20:20 51.93353 7.74423 7857 ft 279 kts 203°
2026-04-27 20:20 51.91567 7.73171 8183 ft 280 kts 203°
2026-04-27 20:21 51.89771 7.71909 8771 ft 282 kts 204°
2026-04-27 20:21 51.87967 7.70639 9611 ft 284 kts 204°
2026-04-27 20:21 51.86144 7.69358 10358 ft 289 kts 205°
2026-04-27 20:21 51.84229 7.68012 10591 ft 311 kts 205°
2026-04-27 20:22 51.82173 7.66563 10819 ft 331 kts 205°
2026-04-27 20:22 51.80036 7.65061 11389 ft 338 kts 205°
2026-04-27 20:22 51.77867 7.63543 12079 ft 341 kts 205°
2026-04-27 20:22 51.75675 7.62015 12793 ft 344 kts 205°
2026-04-27 20:23 51.73472 7.60478 13505 ft 346 kts 205°
2026-04-27 20:23 51.71251 7.58935 14194 ft 348 kts 204°
2026-04-27 20:23 51.68941 7.57688 14787 ft 352 kts 200°
2026-04-27 20:23 51.66589 7.56502 15384 ft 355 kts 200°
2026-04-27 20:24 51.64224 7.55315 15976 ft 358 kts 200°
2026-04-27 20:24 51.61832 7.54118 16551 ft 361 kts 200°
2026-04-27 20:24 51.59423 7.52911 17113 ft 365 kts 200°
2026-04-27 20:24 51.56985 7.51688 17667 ft 368 kts 200°
2026-04-27 20:25 51.54527 7.50456 18220 ft 372 kts 200°
2026-04-27 20:25 51.52044 7.49213 18737 ft 375 kts 200°
2026-04-27 20:25 51.49548 7.47962 19223 ft 377 kts 200°
2026-04-27 20:25 51.47028 7.46703 19710 ft 380 kts 200°
2026-04-27 20:26 51.44497 7.45441 20191 ft 382 kts 200°
2026-04-27 20:26 51.41950 7.44172 20673 ft 384 kts 200°
2026-04-27 20:26 51.39447 7.42692 21133 ft 384 kts 208°
2026-04-27 20:26 51.37157 7.40511 21603 ft 383 kts 219°
2026-04-27 20:27 51.35172 7.37689 22055 ft 382 kts 230°
2026-04-27 20:27 51.33518 7.34355 22504 ft 383 kts 236°
2026-04-27 20:27 51.31938 7.30922 22953 ft 385 kts 236°
2026-04-27 20:27 51.30340 7.27471 23399 ft 387 kts 235°
2026-04-27 20:28 51.28731 7.24013 23819 ft 389 kts 235°
2026-04-27 20:28 51.27108 7.20538 24207 ft 391 kts 235°
2026-04-27 20:28 51.25481 7.17066 24620 ft 391 kts 235°
2026-04-27 20:28 51.24402 7.14763 24900 ft 391 kts 235°
2026-04-27 20:29 51.22224 7.10116 25456 ft 391 kts 236°
2026-04-27 20:29 51.20595 7.06643 25859 ft 391 kts 236°
2026-04-27 20:29 51.18965 7.03168 26263 ft 391 kts 236°
2026-04-27 20:29 51.17336 6.99692 26663 ft 391 kts 236°
2026-04-27 20:30 51.15706 6.96220 27065 ft 391 kts 236°
2026-04-27 20:30 51.14071 6.92745 27465 ft 392 kts 236°
2026-04-27 20:30 51.12432 6.89275 27862 ft 392 kts 235°
2026-04-27 20:30 51.10575 6.86081 28222 ft 397 kts 225°
2026-04-27 20:31 51.08346 6.83442 28581 ft 403 kts 216°
2026-04-27 20:31 51.05827 6.81405 28914 ft 408 kts 211°
2026-04-27 20:31 51.03258 6.79479 29237 ft 409 kts 211°
2026-04-27 20:31 51.00687 6.77540 29545 ft 409 kts 211°
2026-04-27 20:32 50.98113 6.75591 29851 ft 410 kts 211°
2026-04-27 20:32 50.95537 6.73641 30118 ft 411 kts 211°
2026-04-27 20:32 50.91301 6.70456 30189 ft 397 kts 211°
2026-04-27 20:33 50.86381 6.66709 30189 ft 388 kts 215°
2026-04-27 20:33 50.82352 6.61334 30191 ft 376 kts 235°
2026-04-27 20:34 50.79890 6.54165 30196 ft 372 kts 249°
2026-04-27 20:34 50.77987 6.46560 30192 ft 372 kts 249°
2026-04-27 20:35 50.76070 6.38986 30184 ft 371 kts 249°
2026-04-27 20:35 50.74092 6.31457 30178 ft 372 kts 243°
2026-04-27 20:36 50.72627 6.28091 30175 ft 375 kts 231°
2026-04-27 20:36 50.70682 6.25320 30171 ft 381 kts 219°
2026-04-27 20:36 50.68334 6.23313 30168 ft 389 kts 207°
2026-04-27 20:36 50.65680 6.22225 30153 ft 399 kts 196°
2026-04-27 20:37 50.60187 6.20866 30145 ft 400 kts 195°
2026-04-27 20:37 50.54694 6.19486 30137 ft 400 kts 196°
2026-04-27 20:38 50.49189 6.18089 30134 ft 401 kts 195°
2026-04-27 20:38 50.43678 6.16686 30137 ft 402 kts 195°
2026-04-27 20:39 50.38157 6.15285 30136 ft 402 kts 195°
2026-04-27 20:39 50.32593 6.13887 30144 ft 403 kts 195°
2026-04-27 20:40 50.27244 6.11681 30139 ft 395 kts 206°
2026-04-27 20:40 50.22095 6.08687 30139 ft 395 kts 206°
2026-04-27 20:41 50.16935 6.05697 30130 ft 396 kts 206°
2026-04-27 20:41 50.11740 6.02818 30135 ft 400 kts 200°
2026-04-27 20:42 50.08967 6.02137 30129 ft 408 kts 188°
2026-04-27 20:42 50.06105 6.02331 30132 ft 417 kts 178°
2026-04-27 20:42 50.03262 6.03431 30130 ft 427 kts 166°
2026-04-27 20:42 50.00490 6.05161 30119 ft 429 kts 164°
2026-04-27 20:43 49.94951 6.08667 30125 ft 430 kts 164°
2026-04-27 20:43 49.89401 6.12160 30117 ft 431 kts 164°
2026-04-27 20:44 49.83754 6.15683 30333 ft 443 kts 164°
2026-04-27 20:44 49.80880 6.17469 30448 ft 448 kts 164°
2026-04-27 20:44 49.77976 6.19274 30574 ft 452 kts 164°
2026-04-27 20:45 49.75044 6.21101 30754 ft 455 kts 164°
2026-04-27 20:45 49.72118 6.22930 31126 ft 452 kts 164°
2026-04-27 20:45 49.69216 6.24744 31593 ft 448 kts 164°
2026-04-27 20:45 49.66336 6.26539 32043 ft 444 kts 164°
2026-04-27 20:46 49.63483 6.28313 32507 ft 440 kts 165°
2026-04-27 20:46 49.60658 6.30095 32980 ft 437 kts 164°
2026-04-27 20:46 49.57866 6.31896 33460 ft 434 kts 164°
2026-04-27 20:46 49.55099 6.33703 33948 ft 429 kts 164°
2026-04-27 20:47 49.52366 6.35493 34385 ft 424 kts 164°
2026-04-27 20:47 49.49666 6.37250 34824 ft 419 kts 164°
2026-04-27 20:47 49.46983 6.38983 35071 ft 419 kts 164°
2026-04-27 20:47 49.44281 6.40740 35137 ft 424 kts 163°
2026-04-27 20:48 49.38790 6.44446 35139 ft 438 kts 163°
2026-04-27 20:48 49.33151 6.48319 35135 ft 450 kts 162°
2026-04-27 20:49 49.27376 6.52275 35138 ft 456 kts 163°
2026-04-27 20:49 49.21565 6.56218 35138 ft 457 kts 163°
2026-04-27 20:50 49.15750 6.60137 35134 ft 457 kts 163°
2026-04-27 20:50 49.09927 6.64054 35133 ft 457 kts 163°
2026-04-27 20:51 49.04108 6.67955 35125 ft 457 kts 163°
2026-04-27 20:51 48.98169 6.70979 35118 ft 443 kts 178°
2026-04-27 20:52 48.92143 6.71360 35112 ft 430 kts 189°
2026-04-27 20:52 48.86151 6.71105 35109 ft 431 kts 189°
2026-04-27 20:53 48.80155 6.70883 35104 ft 431 kts 189°
2026-04-27 20:53 48.74153 6.70667 35102 ft 431 kts 189°
2026-04-27 20:54 48.65142 6.70313 35102 ft 432 kts 189°
2026-04-27 20:55 48.59140 6.70071 35107 ft 432 kts 189°
2026-04-27 20:55 48.53123 6.69840 35103 ft 432 kts 189°
2026-04-27 20:56 48.47107 6.69605 35102 ft 433 kts 189°
2026-04-27 20:56 48.41081 6.69377 35102 ft 433 kts 189°
2026-04-27 20:57 48.35052 6.69153 35102 ft 434 kts 189°
2026-04-27 20:57 48.29020 6.68922 35095 ft 434 kts 189°
2026-04-27 20:58 48.22993 6.68687 35094 ft 434 kts 189°
2026-04-27 20:58 48.16952 6.68451 35091 ft 434 kts 189°
2026-04-27 20:59 48.10903 6.68218 35091 ft 435 kts 188°
2026-04-27 20:59 48.04881 6.67999 35092 ft 435 kts 188°
2026-04-27 21:00 47.98785 6.67769 35094 ft 436 kts 188°
2026-04-27 21:00 47.92763 6.67537 35092 ft 436 kts 188°
2026-04-27 21:01 47.86704 6.67306 35086 ft 436 kts 188°
2026-04-27 21:01 47.80599 6.67071 35080 ft 436 kts 188°
2026-04-27 21:02 47.74537 6.66838 35079 ft 436 kts 188°
2026-04-27 21:02 47.68469 6.66611 35076 ft 437 kts 188°
2026-04-27 21:03 47.62389 6.66396 35076 ft 437 kts 188°
2026-04-27 21:03 47.56306 6.66168 35075 ft 437 kts 188°
2026-04-27 21:04 47.50220 6.65940 35072 ft 438 kts 188°
2026-04-27 21:04 47.44147 6.65580 35080 ft 433 kts 194°
2026-04-27 21:05 47.38516 6.63092 35086 ft 417 kts 213°
2026-04-27 21:05 47.33864 6.58252 35089 ft 406 kts 226°
2026-04-27 21:06 47.29563 6.52827 35087 ft 407 kts 225°
2026-04-27 21:06 47.25234 6.47439 35094 ft 408 kts 225°
2026-04-27 21:07 47.20908 6.42048 35099 ft 407 kts 225°
2026-04-27 21:07 47.16578 6.36644 35088 ft 408 kts 225°
2026-04-27 21:08 47.12253 6.31258 35076 ft 408 kts 225°
2026-04-27 21:08 47.08562 6.26913 35067 ft 412 kts 217°
2026-04-27 21:09 47.03208 6.23653 35061 ft 427 kts 197°
2026-04-27 21:09 46.97252 6.22706 35066 ft 432 kts 191°
2026-04-27 21:10 46.91256 6.21914 35061 ft 433 kts 191°